Hourly Data Report for September 30, 2017

All times are specified in Local Standard Time (LST). Add 1 hour to adjust for Daylight Saving Time where and when it is observed.

CAPE DORSET A
NUNAVUT

64°13'49.000" N
76°31'30.000" W
48.20 m
2400637
71366
YTE

Related Data

No related data is available for this station

Download Data

Hourly Data (September 2017)
Hourly Data Report for September 30, 2017
Temp Definition
°C
Dew Point Temp Definition
°C
Rel Hum Definition
%
Wind Dir Definition
10's deg

Wind Spd Definition
km/h
Visibility Definition
km
Stn Press Definition
kPa
Hmdx Definition


Wind Chill Definition


Weather Definition


TIME
00:00 Legend Double Dagger -0.8 -1.2 97 13 46 4.0 99.09   -9 Snow
01:00 Legend Double Dagger -0.5 -0.8 98 12 45 4.8 98.84   -8 Snow
02:00 Legend Double Dagger 0.0 -0.3 98 13 46 9.7 98.59   -8 Rain,Fog
03:00 Legend Double Dagger 0.0 -0.1 99 13 46 2.4 98.38   -8 Snow
04:00 Legend Double Dagger 0.0 0.0 100 12 50 2.0 98.10   -8 Snow
05:00 Legend Double Dagger -0.1 -0.1 100 11 55 1.6 97.85   -9 Snow
06:00 Legend Double Dagger -0.2 -0.2 100 LegendMM LegendMM 0.6 97.60     LegendNANA
07:00 Legend Double Dagger -0.1 -0.1 100 LegendMM LegendMM LegendMM 97.37     LegendNANA
08:00 Legend Double Dagger -0.1 -0.1 100 9 72 0.6 97.16   -10 Moderate Snow
09:00 Legend Double Dagger -0.1 -0.1 100 8 76 0.6 97.15   -10 Moderate Snow
10:00 Legend Double Dagger -1.1 -1.1 100 6 58 0.6 97.24   -10 Moderate Snow
11:00 Legend Double Dagger -1.9 -1.9 100 5 61 0.2 97.33   -11 Heavy Snow
12:00 Legend Double Dagger -2.2 -2.2 100 LegendMM LegendMM 0.2 97.54     Heavy Snow
13:00 Legend Double Dagger -3.3 -3.4 99 LegendMM LegendMM 0.2 97.80     Heavy Snow
14:00 Legend Double Dagger -3.4 -3.5 99 2 58 0.8 98.09   -13 Moderate Snow
15:00 Legend Double Dagger -3.0 -3.4 97 1 52 0.8 98.38   -12 Moderate Snow
16:00 Legend Double Dagger -3.4 -4.7 91 36 58 2.0 98.62   -13 Snow
17:00 Legend Double Dagger -3.1 -5.1 86 36 48 4.0 98.84   -12 Snow
18:00 Legend Double Dagger -3.2 -5.7 83 1 48 6.4 99.04   -12 Snow
19:00 Legend Double Dagger -2.3 -5.4 79 36 46 16.1 99.20   -11 LegendNANA
20:00 Legend Double Dagger -2.3 -5.7 78 36 52 16.1 99.33   -11 Snow
21:00 Legend Double Dagger -2.5 -5.8 78 36 35 16.1 99.50   -10 LegendNANA
22:00 Legend Double Dagger -2.4 -5.7 78 36 41 16.1 99.67   -11 LegendNANA
23:00 Legend Double Dagger -2.4 -5.7 78 36 30 16.1 99.86   -10 LegendNANA

Notes on Data Quality.

Legend

  • E = Estimated
  • M = Missing
  • NA = Not Available
  • ‡ = Partner data that is not subject to review by the National Climate Archives
Date modified: